Home   Weather   Petah Tikva   Past weeks

Flag for Israel Past Weather in Petah Tikva, Israel — Yesterday and Last 2 Weeks

Now
43 °F

Clear.


Feels Like: 41 °F
Forecast: 46 / 71 °F
Wind: 3 mph from North

Location: Ben Gurion International Airport

Current Time: Jan 23, 2017 at 6:29:22 am

Latest Report: Jan 23, 2017 at 5:50 am


Visibility: 10 mi

Pressure: 30.18 "Hg

Humidity: 81%

Dew Point: 37 °F

Location of Petah TikvaLocation

Past Weather in Petah Tikva — Graph

°F

Petah Tikva Temperature Yesterday

Maximum temperature yesterday: 64 °F (at 1:20 pm)
Minimum temperature yesterday: 45 °F (at 6:50 am)
Average temperature yesterday: 54 °F

High & Low Weather Summary for the Past Weeks

 TemperatureHumidityPressure
High70 °F (Jan 17, 2:20 pm)100% (Jan 14, 11:20 pm)30.27 "Hg (Jan 14, 11:20 pm)
Low41 °F (Jan 11, 5:50 am)26% (Jan 10, 3:20 pm)29.86 "Hg (Jan 14, 11:20 pm)
Average55 °F67%30.10 "Hg
* Reported Jan 8 5:20 am — Jan 23 5:20 am, Petah Tikva, Weather by CustomWeather, © 2017

Note: Actual official high and low records may vary slightly from our data, if they occured in-between our weather recording intervals... More about our weather records

Advertising

Petah Tikva Weather History for the Previous 24 Hours

Scroll right to see more
 ConditionsComfort  
Time TempWeatherWind HumidityBarometerVisibility
5:20 am
Mon, Jan 23
43 °FClear.3 mph81%30.18 "Hg10 mi
4:50 am43 °FClear.2 mph81%30.18 "Hg10 mi
4:20 am43 °FClear.1 mph81%30.18 "Hg10 mi
3:50 am43 °FClear.2 mph81%30.18 "Hg10 mi
3:20 am45 °FClear.1 mph76%30.21 "Hg10 mi
2:50 am46 °FClear.2 mph71%30.21 "Hg10 mi
2:20 am46 °FClear.3 mph71%30.21 "Hg10 mi
1:50 am46 °FClear.5 mph71%30.21 "Hg10 mi
1:20 am46 °FClear.3 mph76%30.21 "Hg10 mi
12:50 am46 °FClear.5 mph76%30.21 "Hg10 mi
12:20 am50 °FClear.3 mph67%30.24 "Hg10 mi
11:50 pm
Sun, Jan 22
50 °FClear.3 mph67%30.24 "Hg10 mi
11:20 pm50 °FClear.2 mph71%30.24 "Hg10 mi
10:50 pm50 °FClear.2 mph71%30.24 "Hg10 mi
10:20 pm50 °FClear.3 mph67%30.24 "Hg10 mi
9:50 pm54 °FClear.3 mph58%30.24 "Hg10 mi
9:20 pm54 °FClear.3 mph58%30.24 "Hg10 mi
8:50 pm54 °FClear.2 mph58%30.24 "Hg10 mi
8:20 pm54 °FClear.2 mph63%30.24 "Hg10 mi
7:50 pm55 °FClear.5 mph55%30.24 "Hg10 mi
7:20 pm55 °FClear.3 mph55%30.21 "Hg10 mi
6:50 pm55 °FClear.8 mph59%30.21 "Hg10 mi
6:20 pm57 °FPassing clouds.8 mph51%30.21 "HgN/A
5:50 pm59 °FPassing clouds.8 mph51%30.21 "HgN/A
5:20 pm59 °FPassing clouds.9 mph51%30.21 "HgN/A
4:50 pm59 °FPassing clouds.13 mph48%30.18 "HgN/A
4:20 pm61 °FPassing clouds.13 mph45%30.18 "HgN/A
3:50 pm61 °FPassing clouds.13 mph42%30.18 "HgN/A
3:20 pm63 °FPassing clouds.12 mph39%30.18 "HgN/A
2:50 pm63 °FPassing clouds.12 mph39%30.15 "HgN/A
2:20 pm63 °FPassing clouds.7 mph37%30.18 "HgN/A
1:50 pm64 °FPassing clouds.7 mph32%30.15 "HgN/A
1:20 pm64 °FPassing clouds.7 mph34%30.18 "HgN/A
12:50 pm63 °FPassing clouds.8 mph34%30.18 "HgN/A
12:20 pm63 °FPassing clouds.8 mph34%30.18 "HgN/A
11:50 am63 °FPassing clouds.8 mph32%30.21 "HgN/A
11:20 am63 °FPassing clouds.7 mph34%30.21 "HgN/A
10:50 am61 °FPassing clouds.6 mph36%30.24 "HgN/A
10:20 am61 °FPassing clouds.6 mph42%30.24 "HgN/A
9:50 am61 °FPassing clouds.1 mph52%30.24 "HgN/A
9:20 am57 °FPassing clouds.1 mph63%30.24 "HgN/A
8:50 am54 °FPassing clouds.3 mph72%30.24 "HgN/A
8:20 am52 °FPassing clouds.5 mph77%30.21 "HgN/A
7:50 am48 °FPassing clouds.3 mph87%30.21 "HgN/A
7:20 am46 °FPassing clouds.1 mph87%30.21 "HgN/A
6:50 am45 °FPassing clouds.1 mph93%30.18 "HgN/A
6:20 am46 °FClear.3 mph87%30.18 "Hg10 mi
Weather by CustomWeather, © 2017

See weather overviewHow to use our weather pages